Wetterdaten: aktuell Mittwoch, 17.08.2022 06:50
Datum Zeit Temp. I. Temp. A. Temp. 2 Temp. Wind Windchill X Feuchte I. Feuchte A. Feuchte 2 Luftdruck Regen Wind Richtung Richtung Taupunkt Windchill Windben
17.08.2022 06:50 25,1 C 16,8 C 16,6 C 16,7 C 16,5 C 55 % 62 % 90 % 1008,7 hPa 0,0 mm 0,2 km/h (0 Bft) W-SW 247 9,5 C 16,8 C 0,0 km/h (0 Bft)
17.08.2022 06:45 25,4 C 16,7 C 16,5 C 16,6 C 16,5 C 54 % 62 % 90 % 1008,7 hPa 0,0 mm 0,0 km/h (0 Bft) O-SO 112 9,4 C 16,7 C 0,0 km/h (0 Bft)
17.08.2022 06:40 25,6 C 16,7 C 16,5 C 16,6 C 16,5 C 54 % 63 % 90 % 1008,7 hPa 0,0 mm 0,0 km/h (0 Bft) O-SO 112 9,6 C 16,7 C 0,0 km/h (0 Bft)
17.08.2022 06:35 25,7 C 16,7 C 16,5 C 16,6 C 16,5 C 53 % 63 % 90 % 1008,7 hPa 0,0 mm 0,0 km/h (0 Bft) O-SO 112 9,6 C 16,7 C 0,0 km/h (0 Bft)
17.08.2022 06:30 25,7 C 16,6 C 16,5 C 16,5 C 16,4 C 53 % 63 % 89 % 1008,1 hPa 0,0 mm 0,0 km/h (0 Bft) O-SO 112 9,5 C 16,6 C 0,0 km/h (0 Bft)
17.08.2022 06:25 25,7 C 16,6 C 16,4 C 16,5 C 16,3 C 53 % 63 % 89 % 1008,1 hPa 0,0 mm 0,0 km/h (0 Bft) O-SO 112 9,5 C 16,6 C 0,0 km/h (0 Bft)
17.08.2022 06:20 25,7 C 16,5 C 16,4 C 16,4 C 16,3 C 53 % 63 % 89 % 1008,1 hPa 0,0 mm 0,0 km/h (0 Bft) O-SO 112 9,4 C 16,5 C 0,0 km/h (0 Bft)
17.08.2022 06:15 25,7 C 16,5 C 16,3 C 16,4 C 16,3 C 53 % 63 % 89 % 1008,1 hPa 0,0 mm 0,0 km/h (0 Bft) O-SO 112 9,4 C 16,5 C 0,0 km/h (0 Bft)
17.08.2022 06:10 25,7 C 16,5 C 16,3 C 16,4 C 16,3 C 53 % 63 % 89 % 1008,6 hPa 0,0 mm 0,0 km/h (0 Bft) O-SO 112 9,4 C 16,5 C 0,0 km/h (0 Bft)
17.08.2022 06:05 25,8 C 16,5 C 16,3 C 16,4 C 16,3 C 53 % 63 % 89 % 1008,6 hPa 0,0 mm 0,0 km/h (0 Bft) O-SO 112 9,4 C 16,5 C 0,0 km/h (0 Bft)
17.08.2022 06:00 25,7 C 16,5 C 16,3 C 16,4 C 16,3 C 53 % 63 % 89 % 1008,6 hPa 0,0 mm 0,0 km/h (0 Bft) O-SO 112 9,4 C 16,5 C 0,0 km/h (0 Bft)
17.08.2022 05:55 25,7 C 16,5 C 16,4 C 16,4 C 16,3 C 53 % 63 % 89 % 1008,6 hPa 0,0 mm 0,0 km/h (0 Bft) O-SO 112 9,4 C 16,5 C 0,0 km/h (0 Bft)
17.08.2022 05:50 25,7 C 16,5 C 16,3 C 16,4 C 16,3 C 53 % 63 % 89 % 1008,6 hPa 0,0 mm 0,0 km/h (0 Bft) O-SO 112 9,4 C 16,5 C 0,0 km/h (0 Bft)
17.08.2022 05:45 25,8 C 16,4 C 16,3 C 16,4 C 16,3 C 53 % 63 % 89 % 1008,6 hPa 0,0 mm 0,0 km/h (0 Bft) O-SO 112 9,3 C 16,4 C 0,0 km/h (0 Bft)
17.08.2022 05:40 25,7 C 16,3 C 16,2 C 16,3 C 16,2 C 53 % 63 % 89 % 1008,6 hPa 0,0 mm 0,0 km/h (0 Bft) O-SO 112 9,2 C 16,3 C 0,0 km/h (0 Bft)
17.08.2022 05:35 25,8 C 16,2 C 16,1 C 16,1 C 16,0 C 53 % 63 % 89 % 1008,6 hPa 0,0 mm 0,0 km/h (0 Bft) O-SO 112 9,1 C 16,2 C 0,0 km/h (0 Bft)
17.08.2022 05:30 25,8 C 16,1 C 16,0 C 16,0 C 15,8 C 53 % 64 % 88 % 1008,7 hPa 0,0 mm 0,0 km/h (0 Bft) O-SO 112 9,3 C 16,1 C 0,0 km/h (0 Bft)
17.08.2022 05:25 25,8 C 16,2 C 16,0 C 16,1 C 15,8 C 53 % 64 % 88 % 1008,7 hPa 0,0 mm 0,0 km/h (0 Bft) O-SO 112 9,4 C 16,2 C 0,0 km/h (0 Bft)
17.08.2022 05:20 25,8 C 16,1 C 16,0 C 16,0 C 15,7 C 53 % 64 % 88 % 1008,7 hPa 0,0 mm 0,0 km/h (0 Bft) O-SO 112 9,3 C 16,1 C 0,0 km/h (0 Bft)
17.08.2022 05:15 25,8 C 16,1 C 16,0 C 16,0 C 15,7 C 53 % 64 % 88 % 1008,7 hPa 0,0 mm 0,0 km/h (0 Bft) O-SO 112 9,3 C 16,1 C 0,0 km/h (0 Bft)
17.08.2022 05:10 25,8 C 16,1 C 16,0 C 15,9 C 15,6 C 53 % 64 % 88 % 1008,8 hPa 0,0 mm 0,0 km/h (0 Bft) O-SO 112 9,3 C 16,1 C 0,0 km/h (0 Bft)
17.08.2022 05:05 25,8 C 16,1 C 15,9 C 16,0 C 15,7 C 53 % 64 % 88 % 1008,8 hPa 0,0 mm 0,0 km/h (0 Bft) O-SO 112 9,3 C 16,1 C 0,0 km/h (0 Bft)
17.08.2022 05:00 25,8 C 16,2 C 16,0 C 16,0 C 15,7 C 53 % 64 % 88 % 1008,8 hPa 0,0 mm 0,0 km/h (0 Bft) O-SO 112 9,4 C 16,2 C 0,0 km/h (0 Bft)
17.08.2022 04:55 25,8 C 16,3 C 16,2 C 16,1 C 15,8 C 53 % 64 % 88 % 1008,8 hPa 0,0 mm 0,0 km/h (0 Bft) O-SO 112 9,5 C 16,3 C 0,0 km/h (0 Bft)
17.08.2022 04:50 25,8 C 16,4 C 16,2 C 16,2 C 15,8 C 53 % 64 % 88 % 1008,8 hPa 0,0 mm 0,0 km/h (0 Bft) O-SO 112 9,6 C 16,4 C 0,0 km/h (0 Bft)
17.08.2022 04:45 25,8 C 16,4 C 16,2 C 16,2 C 15,8 C 53 % 64 % 88 % 1008,8 hPa 0,0 mm 0,0 km/h (0 Bft) O-SO 112 9,6 C 16,4 C 0,0 km/h (0 Bft)
17.08.2022 04:40 25,8 C 16,4 C 16,2 C 16,2 C 15,9 C 53 % 64 % 88 % 1008,8 hPa 0,0 mm 0,0 km/h (0 Bft) O-SO 112 9,6 C 16,4 C 0,0 km/h (0 Bft)
17.08.2022 04:35 25,8 C 16,5 C 16,3 C 16,3 C 15,9 C 53 % 64 % 88 % 1008,8 hPa 0,0 mm 0,0 km/h (0 Bft) O-SO 112 9,7 C 16,5 C 0,0 km/h (0 Bft)
17.08.2022 04:30 25,8 C 16,5 C 16,3 C 16,3 C 16,0 C 53 % 64 % 88 % 1008,7 hPa 0,0 mm 0,0 km/h (0 Bft) O-SO 112 9,7 C 16,5 C 0,0 km/h (0 Bft)
17.08.2022 04:25 25,9 C 16,5 C 16,3 C 16,3 C 15,9 C 52 % 64 % 87 % 1008,7 hPa 0,0 mm 0,0 km/h (0 Bft) O-SO 112 9,7 C 16,5 C 0,0 km/h (0 Bft)
17.08.2022 04:20 25,9 C 16,6 C 16,3 C 16,4 C 15,9 C 53 % 64 % 87 % 1008,7 hPa 0,0 mm 0,0 km/h (0 Bft) O-SO 112 9,8 C 16,6 C 0,0 km/h (0 Bft)
17.08.2022 04:15 25,9 C 16,7 C 16,4 C 16,5 C 16,0 C 53 % 64 % 87 % 1008,7 hPa 0,0 mm 0,0 km/h (0 Bft) O-SO 112 9,9 C 16,7 C 0,0 km/h (0 Bft)
17.08.2022 04:10 25,9 C 16,7 C 16,5 C 16,5 C 16,0 C 53 % 64 % 87 % 1008,7 hPa 0,0 mm 0,0 km/h (0 Bft) O-SO 112 9,9 C 16,7 C 0,0 km/h (0 Bft)
17.08.2022 04:05 25,9 C 16,7 C 16,5 C 16,5 C 16,0 C 53 % 64 % 87 % 1008,7 hPa 0,0 mm 0,0 km/h (0 Bft) O-SO 112 9,9 C 16,7 C 0,0 km/h (0 Bft)
17.08.2022 04:00 25,9 C 16,8 C 16,5 C 16,5 C 16,0 C 53 % 64 % 87 % 1008,7 hPa 0,0 mm 0,0 km/h (0 Bft) O-SO 112 10,0 C 16,8 C 0,0 km/h (0 Bft)
17.08.2022 03:55 25,9 C 16,9 C 16,6 C 16,6 C 16,1 C 52 % 64 % 87 % 1008,7 hPa 0,0 mm 0,0 km/h (0 Bft) O-SO 112 10,0 C 16,9 C 0,0 km/h (0 Bft)
17.08.2022 03:50 25,9 C 16,9 C 16,7 C 16,7 C 16,2 C 53 % 64 % 87 % 1008,9 hPa 0,0 mm 0,0 km/h (0 Bft) O-SO 112 10,0 C 16,9 C 0,0 km/h (0 Bft)
17.08.2022 03:45 25,9 C 17,0 C 16,7 C 16,8 C 16,3 C 52 % 64 % 87 % 1008,9 hPa 0,0 mm 0,0 km/h (0 Bft) O-SO 112 10,1 C 17,0 C 0,0 km/h (0 Bft)
17.08.2022 03:40 25,9 C 17,1 C 16,8 C 16,8 C 16,3 C 52 % 64 % 87 % 1008,9 hPa 0,0 mm 0,0 km/h (0 Bft) O-SO 112 10,2 C 17,1 C 0,0 km/h (0 Bft)
17.08.2022 03:35 26,0 C 17,2 C 16,9 C 16,9 C 16,4 C 52 % 64 % 87 % 1008,9 hPa 0,0 mm 0,0 km/h (0 Bft) O-SO 112 10,3 C 17,2 C 0,0 km/h (0 Bft)
17.08.2022 03:30 26,0 C 17,2 C 17,0 C 17,0 C 16,5 C 52 % 64 % 87 % 1009,1 hPa 0,0 mm 0,0 km/h (0 Bft) O-SO 112 10,3 C 17,2 C 0,0 km/h (0 Bft)
17.08.2022 03:25 26,0 C 17,3 C 17,1 C 17,1 C 16,7 C 52 % 64 % 87 % 1009,1 hPa 0,0 mm 0,0 km/h (0 Bft) O-SO 112 10,4 C 17,3 C 0,0 km/h (0 Bft)
17.08.2022 03:20 26,0 C 17,3 C 17,1 C 17,1 C 16,6 C 52 % 64 % 87 % 1009,1 hPa 0,0 mm 0,0 km/h (0 Bft) O-SO 112 10,4 C 17,3 C 0,0 km/h (0 Bft)
17.08.2022 03:15 26,0 C 17,3 C 17,1 C 17,1 C 16,6 C 52 % 64 % 86 % 1009,1 hPa 0,0 mm 0,0 km/h (0 Bft) O-SO 112 10,4 C 17,3 C 0,0 km/h (0 Bft)
17.08.2022 03:10 26,0 C 17,3 C 17,1 C 17,1 C 16,6 C 52 % 64 % 86 % 1009,2 hPa 0,0 mm 0,0 km/h (0 Bft) O-SO 112 10,4 C 17,3 C 0,0 km/h (0 Bft)
17.08.2022 03:05 26,0 C 17,4 C 17,2 C 17,2 C 16,7 C 52 % 65 % 86 % 1009,2 hPa 0,0 mm 0,0 km/h (0 Bft) O-SO 112 10,8 C 17,4 C 0,0 km/h (0 Bft)
17.08.2022 03:00 26,0 C 17,5 C 17,3 C 17,2 C 16,7 C 52 % 65 % 86 % 1009,2 hPa 0,0 mm 0,0 km/h (0 Bft) O-SO 112 10,8 C 17,5 C 0,0 km/h (0 Bft)
17.08.2022 02:55 26,0 C 17,6 C 17,4 C 17,4 C 16,9 C 52 % 65 % 86 % 1009,2 hPa 0,0 mm 0,0 km/h (0 Bft) O-SO 112 10,9 C 17,6 C 0,0 km/h (0 Bft)
17.08.2022 02:50 26,0 C 17,7 C 17,5 C 17,4 C 16,9 C 52 % 65 % 86 % 1009,4 hPa 0,0 mm 0,0 km/h (0 Bft) O-SO 112 11,0 C 17,7 C 0,0 km/h (0 Bft)
17.08.2022 02:45 26,0 C 17,7 C 17,5 C 17,5 C 17,0 C 52 % 65 % 86 % 1009,4 hPa 0,0 mm 0,0 km/h (0 Bft) O-SO 112 11,0 C 17,7 C 0,0 km/h (0 Bft)
17.08.2022 02:40 26,0 C 17,8 C 17,5 C 17,6 C 17,1 C 52 % 65 % 86 % 1009,4 hPa 0,0 mm 0,0 km/h (0 Bft) O-SO 112 11,1 C 17,8 C 0,0 km/h (0 Bft)
17.08.2022 02:35 26,0 C 17,8 C 17,6 C 17,6 C 17,2 C 52 % 65 % 86 % 1009,4 hPa 0,0 mm 0,0 km/h (0 Bft) O-SO 112 11,1 C 17,8 C 0,0 km/h (0 Bft)
17.08.2022 02:30 26,0 C 17,8 C 17,5 C 17,6 C 17,2 C 52 % 65 % 86 % 1009,7 hPa 0,0 mm 0,0 km/h (0 Bft) O-SO 112 11,1 C 17,8 C 0,0 km/h (0 Bft)
17.08.2022 02:25 26,0 C 17,8 C 17,5 C 17,6 C 17,1 C 52 % 65 % 86 % 1009,7 hPa 0,0 mm 0,0 km/h (0 Bft) O-SO 112 11,1 C 17,8 C 0,0 km/h (0 Bft)
17.08.2022 02:20 26,0 C 17,8 C 17,6 C 17,6 C 17,1 C 52 % 65 % 86 % 1009,7 hPa 0,0 mm 0,0 km/h (0 Bft) O-SO 112 11,1 C 17,8 C 0,0 km/h (0 Bft)
17.08.2022 02:15 26,1 C 17,8 C 17,6 C 17,6 C 17,2 C 52 % 65 % 85 % 1009,7 hPa 0,0 mm 0,0 km/h (0 Bft) O-SO 112 11,1 C 17,8 C 0,0 km/h (0 Bft)
17.08.2022 02:10 26,1 C 17,9 C 17,7 C 17,7 C 17,2 C 52 % 66 % 85 % 1009,9 hPa 0,0 mm 0,0 km/h (0 Bft) O-SO 112 11,5 C 17,9 C 0,0 km/h (0 Bft)
17.08.2022 02:05 26,1 C 18,0 C 17,7 C 17,8 C 17,4 C 52 % 66 % 85 % 1009,9 hPa 0,0 mm 0,0 km/h (0 Bft) O-SO 112 11,6 C 18,0 C 0,0 km/h (0 Bft)
17.08.2022 02:00 26,1 C 18,0 C 17,8 C 17,8 C 17,4 C 52 % 66 % 85 % 1009,9 hPa 0,0 mm 0,0 km/h (0 Bft) O-SO 112 11,6 C 18,0 C 0,0 km/h (0 Bft)
17.08.2022 01:55 26,1 C 18,1 C 17,8 C 17,9 C 17,4 C 52 % 66 % 85 % 1009,9 hPa 0,0 mm 0,0 km/h (0 Bft) O-SO 112 11,6 C 18,1 C 0,0 km/h (0 Bft)
17.08.2022 01:50 26,2 C 18,0 C 17,8 C 17,8 C 17,4 C 52 % 66 % 85 % 1010,0 hPa 0,0 mm 0,0 km/h (0 Bft) O-SO 112 11,6 C 18,0 C 0,0 km/h (0 Bft)
17.08.2022 01:45 26,1 C 18,0 C 17,7 C 17,7 C 17,2 C 52 % 67 % 84 % 1010,0 hPa 0,0 mm 0,0 km/h (0 Bft) O-SO 112 11,8 C 18,0 C 0,0 km/h (0 Bft)
17.08.2022 01:40 26,1 C 18,0 C 17,7 C 17,7 C 17,0 C 52 % 67 % 84 % 1010,0 hPa 0,0 mm 0,0 km/h (0 Bft) O-SO 112 11,8 C 18,0 C 0,0 km/h (0 Bft)
17.08.2022 01:35 26,2 C 18,2 C 17,9 C 17,8 C 17,1 C 52 % 67 % 83 % 1010,0 hPa 0,0 mm 0,0 km/h (0 Bft) O-SO 112 12,0 C 18,2 C 0,0 km/h (0 Bft)
17.08.2022 01:30 26,2 C 18,3 C 18,0 C 17,9 C 17,2 C 52 % 67 % 83 % 1009,8 hPa 0,0 mm 0,0 km/h (0 Bft) O-SO 112 12,1 C 18,3 C 0,0 km/h (0 Bft)
17.08.2022 01:25 26,2 C 18,5 C 18,2 C 18,1 C 17,4 C 52 % 67 % 83 % 1009,8 hPa 0,0 mm 0,0 km/h (0 Bft) O-SO 112 12,3 C 18,5 C 0,0 km/h (0 Bft)
17.08.2022 01:20 26,2 C 18,6 C 18,3 C 18,2 C 17,4 C 52 % 67 % 83 % 1009,8 hPa 0,0 mm 0,0 km/h (0 Bft) O-SO 112 12,3 C 18,6 C 0,0 km/h (0 Bft)
17.08.2022 01:15 26,2 C 18,7 C 18,4 C 18,3 C 17,6 C 52 % 67 % 83 % 1009,8 hPa 0,0 mm 0,0 km/h (0 Bft) O-SO 112 12,4 C 18,7 C 0,0 km/h (0 Bft)
17.08.2022 01:10 26,2 C 18,9 C 18,5 C 18,5 C 17,6 C 52 % 67 % 83 % 1009,9 hPa 0,0 mm 0,0 km/h (0 Bft) O-SO 112 12,6 C 18,9 C 0,0 km/h (0 Bft)
17.08.2022 01:05 26,2 C 19,0 C 18,6 C 18,6 C 17,7 C 52 % 68 % 83 % 1009,9 hPa 0,0 mm 0,0 km/h (0 Bft) O-SO 112 13,0 C 19,0 C 0,0 km/h (0 Bft)
17.08.2022 01:00 26,3 C 19,1 C 18,7 C 18,7 C 17,8 C 52 % 68 % 82 % 1009,9 hPa 0,0 mm 0,0 km/h (0 Bft) O-SO 112 13,1 C 19,1 C 0,0 km/h (0 Bft)
17.08.2022 00:55 26,3 C 19,2 C 18,9 C 18,8 C 18,0 C 52 % 68 % 82 % 1009,9 hPa 0,0 mm 0,0 km/h (0 Bft) O-SO 112 13,1 C 19,2 C 0,0 km/h (0 Bft)
17.08.2022 00:50 26,3 C 19,3 C 19,0 C 18,9 C 18,1 C 52 % 68 % 82 % 1010,2 hPa 0,0 mm 0,0 km/h (0 Bft) O-SO 112 13,2 C 19,3 C 0,0 km/h (0 Bft)
17.08.2022 00:45 26,3 C 19,4 C 19,1 C 19,0 C 18,2 C 52 % 68 % 82 % 1010,2 hPa 0,0 mm 0,0 km/h (0 Bft) O-SO 112 13,3 C 19,4 C 0,0 km/h (0 Bft)
17.08.2022 00:40 26,3 C 19,5 C 19,2 C 19,1 C 18,3 C 52 % 68 % 82 % 1010,2 hPa 0,0 mm 0,0 km/h (0 Bft) O-SO 112 13,4 C 19,5 C 0,0 km/h (0 Bft)
17.08.2022 00:35 26,2 C 19,7 C 19,4 C 19,3 C 18,4 C 52 % 68 % 82 % 1010,2 hPa 0,0 mm 0,0 km/h (0 Bft) O-SO 112 13,6 C 19,7 C 0,0 km/h (0 Bft)
17.08.2022 00:30 26,2 C 19,8 C 19,5 C 19,4 C 18,6 C 52 % 68 % 81 % 1010,2 hPa 0,0 mm 0,0 km/h (0 Bft) O-SO 112 13,7 C 19,8 C 0,0 km/h (0 Bft)
17.08.2022 00:25 26,2 C 19,9 C 19,5 C 19,5 C 18,7 C 52 % 68 % 81 % 1010,2 hPa 0,0 mm 0,0 km/h (0 Bft) O-SO 112 13,8 C 19,9 C 0,0 km/h (0 Bft)
17.08.2022 00:20 26,2 C 19,9 C 19,6 C 19,5 C 18,8 C 52 % 68 % 80 % 1010,2 hPa 0,0 mm 0,0 km/h (0 Bft) O-SO 112 13,8 C 19,9 C 0,0 km/h (0 Bft)
17.08.2022 00:15 26,4 C 20,1 C 19,7 C 19,7 C 18,8 C 52 % 68 % 80 % 1010,2 hPa 0,0 mm 0,0 km/h (0 Bft) O-SO 112 14,0 C 20,1 C 0,0 km/h (0 Bft)
17.08.2022 00:10 26,4 C 20,2 C 19,8 C 19,7 C 18,8 C 52 % 69 % 79 % 1010,3 hPa 0,0 mm 0,0 km/h (0 Bft) S-SO 157 14,3 C 20,2 C 0,0 km/h (0 Bft)
17.08.2022 00:05 26,4 C 20,2 C 19,8 C 19,7 C 18,8 C 52 % 69 % 79 % 1010,3 hPa 0,0 mm 0,0 km/h (0 Bft) S-SO 157 14,3 C 20,2 C 0,0 km/h (0 Bft)
17.08.2022 00:00 26,4 C 20,3 C 19,9 C 19,8 C 18,8 C 52 % 69 % 79 % 1010,3 hPa 0,0 mm 0,0 km/h (0 Bft) S-SO 157 14,4 C 20,3 C 0,0 km/h (0 Bft)
16.08.2022 23:55 26,4 C 20,3 C 19,9 C 19,8 C 18,8 C 52 % 69 % 79 % 1010,3 hPa 0,0 mm 0,0 km/h (0 Bft) S-SO 157 14,4 C 20,3 C 0,0 km/h (0 Bft)
16.08.2022 23:50 26,4 C 20,4 C 20,0 C 19,9 C 18,8 C 52 % 69 % 78 % 1010,3 hPa 0,0 mm 0,0 km/h (0 Bft) S-SO 157 14,5 C 20,4 C 0,0 km/h (0 Bft)
16.08.2022 23:45 26,4 C 20,5 C 20,1 C 19,9 C 18,8 C 52 % 68 % 77 % 1010,3 hPa 0,0 mm 0,0 km/h (0 Bft) S-SO 157 14,4 C 20,5 C 0,0 km/h (0 Bft)
16.08.2022 23:40 26,4 C 20,6 C 20,3 C 20,0 C 18,9 C 52 % 68 % 78 % 1010,3 hPa 0,0 mm 0,0 km/h (0 Bft) SO 135 14,5 C 20,6 C 0,0 km/h (0 Bft)
16.08.2022 23:35 26,4 C 20,7 C 20,4 C 20,1 C 18,8 C 52 % 68 % 75 % 1010,3 hPa 0,0 mm 0,2 km/h (0 Bft) N 360 14,6 C 20,7 C 0,0 km/h (0 Bft)
16.08.2022 23:30 26,4 C 20,8 C 20,7 C 20,2 C 18,9 C 52 % 68 % 74 % 1010,4 hPa 0,0 mm 0,2 km/h (0 Bft) N-NW 337 14,7 C 20,8 C 0,0 km/h (0 Bft)
16.08.2022 23:25 26,5 C 21,1 C 21,0 C 20,5 C 19,2 C 52 % 67 % 72 % 1010,4 hPa 0,0 mm 2,3 km/h (1 Bft) N-NW 337 14,7 C 21,1 C 0,0 km/h (0 Bft)
16.08.2022 23:20 26,4 C 21,3 C 21,3 C 20,8 C 19,7 C 52 % 67 % 72 % 1010,4 hPa 0,0 mm 3,9 km/h (1 Bft) N-NW 337 14,9 C 21,3 C 0,0 km/h (0 Bft)
16.08.2022 23:15 26,5 C 21,4 C 21,6 C 21,3 C 21,2 C 52 % 66 % 69 % 1010,4 hPa 0,0 mm 3,2 km/h (1 Bft) NW 315 14,8 C 21,4 C 6,0 km/h (2 Bft)
16.08.2022 23:10 26,5 C 21,1 C 21,3 C 21,4 C 21,4 C 52 % 65 % 68 % 1010,3 hPa 0,0 mm 0,9 km/h (0 Bft) NW 315 14,3 C 21,1 C 3,4 km/h (1 Bft)
16.08.2022 23:05 26,5 C 21,0 C 21,1 C 21,3 C 21,3 C 52 % 66 % 69 % 1010,3 hPa 0,0 mm 0,0 km/h (0 Bft) NW 315 14,4 C 21,0 C 0,0 km/h (0 Bft)
16.08.2022 23:00 26,5 C 21,0 C 21,1 C 21,3 C 21,3 C 52 % 66 % 70 % 1010,3 hPa 0,0 mm 0,0 km/h (0 Bft) N-NW 337 14,4 C 21,0 C 0,0 km/h (0 Bft)
16.08.2022 22:55 26,5 C 21,0 C 21,0 C 21,4 C 21,4 C 52 % 66 % 70 % 1010,3 hPa 0,0 mm 0,0 km/h (0 Bft) N-NW 337 14,4 C 21,0 C 0,0 km/h (0 Bft)
16.08.2022 22:50 26,5 C 20,8 C 20,9 C 21,3 C 21,3 C 52 % 66 % 71 % 1010,2 hPa 0,0 mm 0,5 km/h (0 Bft) NW 315 14,2 C 20,8 C 0,0 km/h (0 Bft)
16.08.2022 22:45 26,6 C 20,7 C 20,8 C 21,0 C 21,0 C 52 % 66 % 71 % 1010,2 hPa 0,0 mm 0,5 km/h (0 Bft) NW 315 14,1 C 20,7 C 0,0 km/h (0 Bft)
16.08.2022 22:40 26,6 C 20,7 C 20,7 C 20,9 C 20,9 C 52 % 66 % 71 % 1010,2 hPa 0,0 mm 0,0 km/h (0 Bft) N-NW 337 14,1 C 20,7 C 0,0 km/h (0 Bft)
16.08.2022 22:35 26,6 C 20,6 C 20,7 C 20,8 C 20,8 C 52 % 66 % 70 % 1010,2 hPa 0,0 mm 0,0 km/h (0 Bft) N-NW 337 14,0 C 20,6 C 0,0 km/h (0 Bft)
16.08.2022 22:30 26,6 C 20,5 C 20,6 C 20,6 C 20,6 C 52 % 66 % 70 % 1010,1 hPa 0,0 mm 0,0 km/h (0 Bft) N-NW 337 13,9 C 20,5 C 0,0 km/h (0 Bft)
16.08.2022 22:25 26,6 C 20,5 C 20,6 C 20,5 C 20,4 C 52 % 66 % 70 % 1010,1 hPa 0,0 mm 0,0 km/h (0 Bft) N-NW 337 13,9 C 20,5 C 0,0 km/h (0 Bft)
16.08.2022 22:20 26,6 C 20,5 C 20,6 C 20,4 C 20,3 C 52 % 65 % 69 % 1010,1 hPa 0,0 mm 0,0 km/h (0 Bft) N-NW 337 13,7 C 20,5 C 0,0 km/h (0 Bft)
16.08.2022 22:15 26,7 C 20,6 C 20,7 C 20,5 C 20,3 C 52 % 65 % 68 % 1010,1 hPa 0,0 mm 0,0 km/h (0 Bft) N-NW 337 13,8 C 20,6 C 0,0 km/h (0 Bft)
16.08.2022 22:10 26,7 C 20,7 C 20,7 C 20,6 C 20,3 C 52 % 65 % 68 % 1009,9 hPa 0,0 mm 0,0 km/h (0 Bft) N-NW 337 13,9 C 20,7 C 0,0 km/h (0 Bft)
16.08.2022 22:05 26,7 C 20,8 C 20,8 C 20,6 C 20,3 C 52 % 65 % 68 % 1009,9 hPa 0,0 mm 0,0 km/h (0 Bft) N-NW 337 14,0 C 20,8 C 0,0 km/h (0 Bft)
16.08.2022 22:00 26,8 C 20,9 C 20,9 C 20,7 C 20,3 C 51 % 65 % 68 % 1009,9 hPa 0,0 mm 0,0 km/h (0 Bft) N-NW 337 14,1 C 20,9 C 0,0 km/h (0 Bft)
16.08.2022 21:55 26,8 C 21,0 C 21,0 C 20,7 C 20,2 C 51 % 64 % 67 % 1009,9 hPa 0,0 mm 0,0 km/h (0 Bft) N-NW 337 13,9 C 21,0 C 0,0 km/h (0 Bft)
16.08.2022 21:50 26,8 C 21,1 C 21,1 C 20,8 C 20,2 C 51 % 64 % 67 % 1009,8 hPa 0,0 mm 0,0 km/h (0 Bft) N-NW 337 14,0 C 21,1 C 0,0 km/h (0 Bft)
16.08.2022 21:45 26,9 C 21,3 C 21,3 C 21,0 C 20,3 C 51 % 63 % 65 % 1009,8 hPa 0,0 mm 0,0 km/h (0 Bft) N-NW 337 14,0 C 21,3 C 0,0 km/h (0 Bft)
16.08.2022 21:40 26,9 C 21,5 C 21,4 C 21,1 C 20,3 C 51 % 62 % 65 % 1009,8 hPa 0,0 mm 0,0 km/h (0 Bft) N-NW 337 13,9 C 21,5 C 0,0 km/h (0 Bft)
16.08.2022 21:35 26,9 C 21,8 C 21,7 C 21,4 C 20,5 C 51 % 61 % 64 % 1009,8 hPa 0,0 mm 0,0 km/h (0 Bft) N-NW 337 13,9 C 21,8 C 0,0 km/h (0 Bft)
16.08.2022 21:30 27,0 C 21,9 C 21,9 C 21,5 C 20,7 C 51 % 61 % 63 % 1009,4 hPa 0,0 mm 0,0 km/h (0 Bft) N-NW 337 14,0 C 21,9 C 0,0 km/h (0 Bft)
16.08.2022 21:25 27,0 C 22,2 C 22,1 C 21,7 C 20,8 C 50 % 60 % 62 % 1009,4 hPa 0,0 mm 0,0 km/h (0 Bft) N-NW 337 14,1 C 22,2 C 0,0 km/h (0 Bft)
16.08.2022 21:20 27,0 C 22,4 C 22,3 C 21,9 C 21,0 C 50 % 59 % 63 % 1009,4 hPa 0,0 mm 0,0 km/h (0 Bft) N-NW 337 14,0 C 22,4 C 0,0 km/h (0 Bft)
16.08.2022 21:15 27,1 C 22,9 C 22,8 C 22,4 C 21,3 C 50 % 59 % 61 % 1009,4 hPa 0,0 mm 0,0 km/h (0 Bft) N-NW 337 14,5 C 22,9 C 0,0 km/h (0 Bft)
16.08.2022 21:10 27,1 C 23,1 C 23,0 C 22,6 C 21,6 C 50 % 58 % 60 % 1009,4 hPa 0,0 mm 0,0 km/h (0 Bft) N-NW 337 14,4 C 23,1 C 0,0 km/h (0 Bft)
16.08.2022 21:05 27,1 C 23,6 C 23,4 C 23,1 C 22,0 C 50 % 56 % 60 % 1009,4 hPa 0,0 mm 0,0 km/h (0 Bft) N-NW 337 14,3 C 23,6 C 0,0 km/h (0 Bft)
16.08.2022 21:00 27,1 C 23,8 C 23,7 C 23,3 C 22,3 C 49 % 56 % 59 % 1009,4 hPa 0,0 mm 0,0 km/h (0 Bft) N-NW 337 14,5 C 23,8 C 0,0 km/h (0 Bft)
16.08.2022 20:55 27,2 C 24,2 C 24,1 C 23,7 C 22,7 C 49 % 55 % 57 % 1009,4 hPa 0,0 mm 0,0 km/h (0 Bft) N-NW 337 14,6 C 24,2 C 0,0 km/h (0 Bft)
16.08.2022 20:50 27,2 C 24,5 C 24,3 C 24,0 C 23,0 C 49 % 55 % 58 % 1009,2 hPa 0,0 mm 0,0 km/h (0 Bft) N-NW 337 14,9 C 24,5 C 0,0 km/h (0 Bft)
16.08.2022 20:45 27,2 C 25,1 C 25,0 C 24,6 C 23,6 C 48 % 54 % 57 % 1009,2 hPa 0,0 mm 0,0 km/h (0 Bft) N-NW 337 15,1 C 25,1 C 0,0 km/h (0 Bft)
16.08.2022 20:40 27,2 C 25,4 C 25,2 C 24,9 C 24,0 C 48 % 51 % 53 % 1009,2 hPa 0,0 mm 0,0 km/h (0 Bft) N-NW 337 14,5 C 25,4 C 0,0 km/h (0 Bft)
16.08.2022 20:35 27,2 C 25,9 C 25,6 C 25,4 C 24,5 C 48 % 51 % 52 % 1009,2 hPa 0,0 mm 0,0 km/h (0 Bft) N-NW 337 15,0 C 25,9 C 0,0 km/h (0 Bft)
16.08.2022 20:30 27,3 C 26,1 C 25,9 C 25,7 C 24,9 C 48 % 50 % 52 % 1009,0 hPa 0,0 mm 0,0 km/h (0 Bft) N-NW 337 14,8 C 26,1 C 0,0 km/h (0 Bft)
16.08.2022 20:25 27,2 C 26,5 C 26,3 C 26,1 C 25,3 C 48 % 49 % 51 % 1009,0 hPa 0,0 mm 0,0 km/h (0 Bft) N-NW 337 14,9 C 26,5 C 0,0 km/h (0 Bft)
16.08.2022 20:20 27,2 C 26,7 C 26,5 C 26,4 C 25,7 C 48 % 47 % 49 % 1009,0 hPa 0,0 mm 0,0 km/h (0 Bft) N 360 14,4 C 26,7 C 0,0 km/h (0 Bft)
16.08.2022 20:15 27,4 C 27,1 C 26,9 C 26,8 C 26,1 C 47 % 47 % 48 % 1009,0 hPa 0,0 mm 0,0 km/h (0 Bft) N 360 14,8 C 27,1 C 0,0 km/h (0 Bft)
16.08.2022 20:10 27,4 C 27,2 C 27,1 C 26,9 C 26,4 C 47 % 47 % 47 % 1009,2 hPa 0,0 mm 0,7 km/h (0 Bft) N-NO 22 14,9 C 27,2 C 0,0 km/h (0 Bft)
16.08.2022 20:05 27,4 C 27,4 C 27,4 C 27,2 C 26,9 C 47 % 46 % 47 % 1009,2 hPa 0,0 mm 2,0 km/h (1 Bft) N-NO 22 14,7 C 27,4 C 0,0 km/h (0 Bft)
16.08.2022 20:00 27,4 C 27,3 C 27,5 C 27,2 C 27,1 C 47 % 46 % 47 % 1009,2 hPa 0,0 mm 3,0 km/h (1 Bft) N-NW 337 14,6 C 27,3 C 2,6 km/h (1 Bft)
16.08.2022 19:55 27,5 C 27,4 C 27,7 C 27,4 C 27,4 C 47 % 46 % 47 % 1009,2 hPa 0,0 mm 2,7 km/h (1 Bft) N-NW 337 14,7 C 27,4 C 2,7 km/h (1 Bft)
16.08.2022 19:50 27,5 C 27,4 C 27,9 C 27,7 C 27,7 C 47 % 47 % 46 % 1008,9 hPa 0,0 mm 1,6 km/h (1 Bft) N-NW 337 15,1 C 27,4 C 2,1 km/h (1 Bft)
16.08.2022 19:45 27,5 C 27,5 C 28,1 C 28,2 C 28,2 C 47 % 47 % 47 % 1008,9 hPa 0,0 mm 1,6 km/h (1 Bft) N-NW 337 15,2 C 27,5 C 2,4 km/h (1 Bft)
16.08.2022 19:40 27,5 C 27,7 C 28,1 C 28,3 C 28,3 C 47 % 47 % 47 % 1008,9 hPa 0,0 mm 1,4 km/h (1 Bft) NW 315 15,3 C 27,7 C 0,0 km/h (0 Bft)
16.08.2022 19:35 27,5 C 27,6 C 28,1 C 27,8 C 27,8 C 47 % 46 % 46 % 1008,9 hPa 0,0 mm 0,7 km/h (0 Bft) NW 315 14,9 C 27,6 C 0,0 km/h (0 Bft)
16.08.2022 19:30 27,4 C 27,5 C 28,0 C 27,5 C 27,5 C 47 % 45 % 46 % 1009,0 hPa 0,0 mm 1,6 km/h (1 Bft) N-NW 337 14,5 C 27,5 C 0,0 km/h (0 Bft)
16.08.2022 19:25 27,5 C 27,6 C 28,0 C 27,5 C 27,4 C 47 % 45 % 45 % 1009,0 hPa 0,0 mm 3,2 km/h (1 Bft) N-NW 337 14,6 C 27,6 C 2,6 km/h (1 Bft)
16.08.2022 19:20 27,6 C 27,8 C 28,1 C 27,7 C 27,6 C 47 % 44 % 44 % 1009,0 hPa 0,0 mm 3,6 km/h (1 Bft) N-NW 337 14,4 C 27,8 C 1,9 km/h (1 Bft)
16.08.2022 19:15 27,6 C 27,9 C 28,4 C 27,9 C 27,9 C 47 % 42 % 44 % 1009,0 hPa 0,0 mm 2,7 km/h (1 Bft) N-NW 337 13,8 C 27,9 C 3,1 km/h (1 Bft)
16.08.2022 19:10 27,6 C 28,1 C 28,6 C 28,2 C 28,2 C 47 % 43 % 43 % 1008,9 hPa 0,0 mm 2,5 km/h (1 Bft) N-NW 337 14,3 C 28,1 C 2,6 km/h (1 Bft)
16.08.2022 19:05 27,6 C 28,5 C 29,0 C 29,2 C 29,2 C 47 % 43 % 43 % 1008,9 hPa 0,0 mm 2,7 km/h (1 Bft) N-NW 337 14,7 C 28,5 C 1,6 km/h (1 Bft)
16.08.2022 19:00 27,7 C 28,7 C 29,3 C 29,9 C 29,9 C 47 % 40 % 41 % 1008,9 hPa 0,0 mm 3,9 km/h (1 Bft) N-NW 337 13,7 C 28,7 C 2,6 km/h (1 Bft)
16.08.2022 18:55 27,7 C 29,1 C 29,8 C 31,3 C 31,3 C 47 % 39 % 39 % 1008,9 hPa 0,0 mm 4,6 km/h (1 Bft) N-NW 337 13,7 C 29,1 C 4,5 km/h (1 Bft)
16.08.2022 18:50 27,7 C 29,5 C 30,1 C 32,2 C 32,2 C 47 % 40 % 39 % 1008,8 hPa 0,0 mm 4,6 km/h (1 Bft) N-NW 337 14,5 C 29,5 C 5,1 km/h (1 Bft)
16.08.2022 18:45 27,6 C 29,6 C 30,2 C 32,1 C 32,1 C 47 % 39 % 39 % 1008,8 hPa 0,0 mm 3,9 km/h (1 Bft) N-NW 337 14,2 C 29,6 C 2,3 km/h (1 Bft)
16.08.2022 18:40 27,5 C 29,5 C 30,0 C 31,7 C 31,7 C 47 % 40 % 41 % 1008,8 hPa 0,0 mm 4,3 km/h (1 Bft) N-NW 337 14,5 C 29,5 C 3,2 km/h (1 Bft)
16.08.2022 18:35 27,4 C 29,3 C 29,6 C 30,5 C 30,5 C 47 % 40 % 41 % 1008,8 hPa 0,0 mm 6,6 km/h (2 Bft) N-NW 337 14,3 C 29,3 C 3,4 km/h (1 Bft)
16.08.2022 18:30 27,4 C 29,1 C 29,4 C 30,0 C 30,0 C 47 % 39 % 40 % 1008,8 hPa 0,0 mm 7,5 km/h (2 Bft) N-NW 337 13,7 C 29,0 C 4,3 km/h (1 Bft)
16.08.2022 18:25 27,4 C 29,0 C 29,3 C 29,8 C 29,8 C 47 % 40 % 40 % 1008,8 hPa 0,0 mm 6,8 km/h (2 Bft) N-NW 337 14,0 C 29,0 C 7,1 km/h (2 Bft)
16.08.2022 18:20 27,4 C 29,1 C 29,3 C 30,0 C 30,0 C 47 % 39 % 40 % 1008,8 hPa 0,0 mm 5,9 km/h (2 Bft) N 360 13,7 C 29,1 C 5,5 km/h (1 Bft)
16.08.2022 18:15 27,4 C 29,3 C 29,8 C 31,0 C 31,0 C 47 % 40 % 40 % 1008,8 hPa 0,0 mm 3,6 km/h (1 Bft) NW 315 14,3 C 29,3 C 3,5 km/h (1 Bft)
16.08.2022 18:10 27,4 C 29,5 C 30,1 C 31,6 C 31,6 C 47 % 39 % 39 % 1008,7 hPa 0,0 mm 3,9 km/h (1 Bft) NW 315 14,1 C 29,5 C 4,8 km/h (1 Bft)
16.08.2022 18:05 27,2 C 29,6 C 30,1 C 31,3 C 31,3 C 47 % 39 % 39 % 1008,7 hPa 0,0 mm 3,0 km/h (1 Bft) NW 315 14,2 C 29,6 C 3,7 km/h (1 Bft)
16.08.2022 18:00 27,2 C 29,5 C 30,1 C 31,0 C 31,0 C 48 % 39 % 39 % 1008,7 hPa 0,0 mm 1,8 km/h (1 Bft) W 270 14,1 C 29,5 C 3,9 km/h (1 Bft)
16.08.2022 17:55 27,2 C 29,3 C 29,9 C 30,4 C 30,4 C 48 % 39 % 39 % 1008,7 hPa 0,0 mm 2,5 km/h (1 Bft) SW 225 13,9 C 29,3 C 2,9 km/h (1 Bft)
16.08.2022 17:50 27,2 C 29,4 C 29,8 C 30,3 C 30,3 C 47 % 38 % 39 % 1008,6 hPa 0,0 mm 3,2 km/h (1 Bft) S-SO 157 13,6 C 29,4 C 2,6 km/h (1 Bft)
16.08.2022 17:45 27,2 C 29,4 C 29,8 C 30,4 C 30,4 C 48 % 38 % 39 % 1008,6 hPa 0,0 mm 4,6 km/h (1 Bft) W-NW 292 13,6 C 29,4 C 2,3 km/h (1 Bft)
16.08.2022 17:40 27,2 C 29,4 C 29,8 C 30,4 C 30,4 C 48 % 38 % 39 % 1008,6 hPa 0,0 mm 5,7 km/h (1 Bft) NW 315 13,6 C 29,4 C 4,0 km/h (1 Bft)
16.08.2022 17:35 27,2 C 29,5 C 29,9 C 30,9 C 30,9 C 47 % 38 % 38 % 1008,6 hPa 0,0 mm 5,2 km/h (1 Bft) NW 315 13,7 C 29,5 C 7,1 km/h (2 Bft)
16.08.2022 17:30 27,2 C 29,5 C 30,2 C 31,1 C 31,1 C 47 % 38 % 38 % 1008,4 hPa 0,0 mm 2,5 km/h (1 Bft) NW 315 13,7 C 29,5 C 2,9 km/h (1 Bft)
16.08.2022 17:25 27,2 C 29,7 C 30,3 C 31,0 C 31,0 C 48 % 38 % 38 % 1008,4 hPa 0,0 mm 2,5 km/h (1 Bft) N-NO 22 13,8 C 29,7 C 5,8 km/h (2 Bft)
16.08.2022 17:20 27,2 C 29,6 C 30,1 C 30,8 C 30,8 C 47 % 38 % 38 % 1008,4 hPa 0,0 mm 3,6 km/h (1 Bft) N 360 13,8 C 29,6 C 2,3 km/h (1 Bft)
16.08.2022 17:15 27,2 C 29,6 C 30,1 C 30,8 C 30,8 C 47 % 37 % 38 % 1008,4 hPa 0,0 mm 3,6 km/h (1 Bft) SO 135 13,3 C 29,6 C 3,1 km/h (1 Bft)
16.08.2022 17:10 27,2 C 29,6 C 30,2 C 30,9 C 30,9 C 48 % 38 % 38 % 1008,6 hPa 0,0 mm 4,3 km/h (1 Bft) N-NW 337 13,8 C 29,6 C 3,2 km/h (1 Bft)
16.08.2022 17:05 27,2 C 30,0 C 30,4 C 31,6 C 31,6 C 47 % 37 % 37 % 1008,6 hPa 0,0 mm 5,0 km/h (1 Bft) NW 315 13,7 C 30,0 C 2,6 km/h (1 Bft)
16.08.2022 17:00 27,2 C 30,1 C 30,9 C 32,2 C 32,2 C 48 % 37 % 37 % 1008,6 hPa 0,0 mm 4,1 km/h (1 Bft) N-NO 22 13,8 C 30,1 C 6,0 km/h (2 Bft)
16.08.2022 16:55 27,2 C 30,2 C 31,0 C 32,0 C 32,0 C 48 % 36 % 37 % 1008,6 hPa 0,0 mm 4,1 km/h (1 Bft) N-NO 22 13,4 C 30,2 C 0,0 km/h (0 Bft)
16.08.2022 16:51 27,1 C 30,2 C 30,9 C 31,7 C 31,7 C 48 % 37 % 36 % 1008,6 hPa 0,0 mm 5,2 km/h (1 Bft) S-SO 157 13,9 C 30,2 C 0,0 km/h (0 Bft)
16.08.2022 16:45 27,0 C 30,3 C 30,9 C 31,9 C 31,9 C 48 % 36 % 36 % 1008,6 hPa 0,0 mm 5,9 km/h (2 Bft) W-SW 247 13,5 C 30,3 C 7,4 km/h (2 Bft)
16.08.2022 16:40 27,0 C 30,3 C 30,9 C 31,6 C 31,6 C 48 % 36 % 36 % 1008,6 hPa 0,0 mm 5,7 km/h (1 Bft) S 180 13,5 C 30,3 C 7,2 km/h (2 Bft)
16.08.2022 16:35 26,9 C 30,2 C 30,7 C 31,4 C 31,4 C 48 % 35 % 36 % 1008,6 hPa 0,0 mm 6,4 km/h (2 Bft) W-SW 247 13,0 C 30,2 C 4,8 km/h (1 Bft)
16.08.2022 16:30 27,0 C 30,2 C 30,7 C 31,5 C 31,5 C 48 % 35 % 35 % 1008,6 hPa 0,0 mm 6,6 km/h (2 Bft) NW 315 13,0 C 30,2 C 4,2 km/h (1 Bft)
16.08.2022 16:25 26,9 C 30,5 C 31,2 C 32,7 C 32,7 C 48 % 35 % 35 % 1008,6 hPa 0,0 mm 7,1 km/h (2 Bft) N-NW 337 13,3 C 30,4 C 5,1 km/h (1 Bft)
16.08.2022 16:20 26,9 C 30,8 C 31,7 C 33,9 C 33,9 C 49 % 35 % 35 % 1008,6 hPa 0,0 mm 6,1 km/h (2 Bft) N-NW 337 13,5 C 30,8 C 9,0 km/h (2 Bft)
16.08.2022 16:15 26,8 C 31,5 C 32,8 C 35,8 C 35,8 C 49 % 35 % 34 % 1008,6 hPa 0,0 mm 3,4 km/h (1 Bft) N-NW 337 14,2 C 31,5 C 7,7 km/h (2 Bft)
16.08.2022 16:10 26,8 C 31,5 C 32,9 C 35,8 C 35,8 C 49 % 34 % 34 % 1008,3 hPa 0,0 mm 4,1 km/h (1 Bft) N-NW 337 13,7 C 31,5 C 4,0 km/h (1 Bft)
16.08.2022 16:05 26,8 C 31,9 C 32,8 C 35,3 C 35,3 C 49 % 33 % 33 % 1008,3 hPa 0,0 mm 5,5 km/h (1 Bft) NW 315 13,6 C 31,9 C 7,9 km/h (2 Bft)
16.08.2022 16:00 26,8 C 31,8 C 32,4 C 34,7 C 34,7 C 49 % 33 % 34 % 1008,3 hPa 0,0 mm 7,3 km/h (2 Bft) O-SO 112 13,5 C 31,8 C 7,4 km/h (2 Bft)
16.08.2022 15:55 26,8 C 30,9 C 31,3 C 33,3 C 33,3 C 49 % 35 % 36 % 1008,3 hPa 0,0 mm 10,2 km/h (2 Bft) SW 225 13,6 C 30,7 C 5,1 km/h (1 Bft)
16.08.2022 15:50 26,7 C 31,0 C 31,6 C 34,2 C 34,2 C 49 % 35 % 35 % 1008,6 hPa 0,0 mm 8,9 km/h (2 Bft) N-NW 337 13,7 C 30,8 C 10,5 km/h (2 Bft)
16.08.2022 15:45 26,7 C 31,4 C 32,6 C 36,1 C 36,1 C 49 % 35 % 34 % 1008,6 hPa 0,0 mm 5,5 km/h (1 Bft) N-NW 337 14,1 C 31,4 C 9,5 km/h (2 Bft)
16.08.2022 15:40 26,7 C 31,5 C 33,1 C 35,7 C 35,7 C 49 % 36 % 35 % 1008,6 hPa 0,0 mm 4,8 km/h (1 Bft) N-NW 337 14,6 C 31,5 C 0,0 km/h (0 Bft)
16.08.2022 15:35 26,6 C 31,7 C 33,1 C 36,1 C 36,1 C 50 % 34 % 34 % 1008,6 hPa 0,0 mm 4,3 km/h (1 Bft) W-NW 292 13,9 C 31,7 C 1,9 km/h (1 Bft)
16.08.2022 15:30 26,6 C 31,9 C 33,1 C 36,3 C 36,3 C 50 % 35 % 34 % 1008,4 hPa 0,0 mm 4,6 km/h (1 Bft) NW 315 14,5 C 31,9 C 9,7 km/h (2 Bft)
16.08.2022 15:25 26,6 C 31,7 C 32,9 C 36,2 C 36,2 C 50 % 35 % 35 % 1008,4 hPa 0,0 mm 4,8 km/h (1 Bft) N 360 14,3 C 31,7 C 0,0 km/h (0 Bft)
16.08.2022 15:20 26,6 C 31,6 C 32,8 C 35,8 C 35,8 C 50 % 35 % 35 % 1008,4 hPa 0,0 mm 3,6 km/h (1 Bft) N-NW 337 14,2 C 31,6 C 3,7 km/h (1 Bft)
16.08.2022 15:15 26,6 C 31,3 C 32,3 C 35,3 C 35,3 C 50 % 36 % 36 % 1008,4 hPa 0,0 mm 2,5 km/h (1 Bft) SW 225 14,4 C 31,3 C 4,3 km/h (1 Bft)
16.08.2022 15:10 26,5 C 30,7 C 31,6 C 34,1 C 34,1 C 50 % 37 % 38 % 1008,8 hPa 0,0 mm 3,2 km/h (1 Bft) W-SW 247 14,3 C 30,7 C 0,0 km/h (0 Bft)
16.08.2022 15:05 26,5 C 29,8 C 30,4 C 31,6 C 31,6 C 50 % 39 % 39 % 1008,8 hPa 0,0 mm 3,9 km/h (1 Bft) N 360 14,3 C 29,8 C 2,4 km/h (1 Bft)
16.08.2022 15:00 26,5 C 29,7 C 30,1 C 32,1 C 32,1 C 50 % 39 % 39 % 1008,8 hPa 0,0 mm 5,7 km/h (1 Bft) NW 315 14,2 C 29,7 C 7,6 km/h (2 Bft)
16.08.2022 14:55 26,5 C 30,2 C 30,5 C 32,7 C 32,7 C 50 % 38 % 38 % 1008,8 hPa 0,0 mm 8,0 km/h (2 Bft) W 270 14,3 C 30,1 C 5,6 km/h (1 Bft)
16.08.2022 14:50 26,6 C 30,7 C 31,3 C 33,9 C 33,9 C 50 % 38 % 38 % 1008,5 hPa 0,0 mm 8,9 km/h (2 Bft) S 180 14,7 C 30,5 C 8,0 km/h (2 Bft)
16.08.2022 14:45 26,6 C 30,7 C 31,1 C 33,7 C 33,7 C 50 % 38 % 38 % 1008,5 hPa 0,0 mm 8,2 km/h (2 Bft) N-NW 337 14,7 C 30,6 C 8,0 km/h (2 Bft)
16.08.2022 14:40 26,5 C 30,4 C 30,9 C 33,0 C 33,0 C 50 % 39 % 40 % 1008,5 hPa 0,0 mm 6,6 km/h (2 Bft) SW 225 14,9 C 30,4 C 9,8 km/h (2 Bft)
16.08.2022 14:35 26,5 C 29,8 C 30,3 C 32,0 C 32,0 C 50 % 40 % 41 % 1008,5 hPa 0,0 mm 6,4 km/h (2 Bft) S-SW 202 14,7 C 29,8 C 3,4 km/h (1 Bft)
16.08.2022 14:30 26,5 C 30,0 C 30,5 C 33,0 C 33,0 C 51 % 39 % 39 % 1008,6 hPa 0,0 mm 6,8 km/h (2 Bft) NW 315 14,5 C 30,0 C 4,7 km/h (1 Bft)
16.08.2022 14:25 26,5 C 30,3 C 30,8 C 32,8 C 32,8 C 51 % 39 % 40 % 1008,6 hPa 0,0 mm 5,7 km/h (1 Bft) W-SW 247 14,8 C 30,3 C 3,4 km/h (1 Bft)
16.08.2022 14:20 26,4 C 29,8 C 30,3 C 32,0 C 32,0 C 51 % 40 % 41 % 1008,6 hPa 0,0 mm 6,1 km/h (2 Bft) W 270 14,7 C 29,8 C 4,5 km/h (1 Bft)
16.08.2022 14:15 26,4 C 29,9 C 30,3 C 32,3 C 32,3 C 51 % 39 % 39 % 1008,6 hPa 0,0 mm 6,1 km/h (2 Bft) NW 315 14,4 C 29,9 C 7,9 km/h (2 Bft)
16.08.2022 14:10 26,4 C 29,8 C 30,4 C 31,7 C 31,7 C 51 % 41 % 41 % 1008,6 hPa 0,0 mm 5,2 km/h (1 Bft) W 270 15,1 C 29,8 C 7,2 km/h (2 Bft)
16.08.2022 14:05 26,4 C 28,9 C 29,3 C 29,9 C 29,9 C 51 % 42 % 43 % 1008,6 hPa 0,0 mm 5,9 km/h (2 Bft) S-SO 157 14,7 C 28,9 C 5,1 km/h (1 Bft)
16.08.2022 14:00 26,4 C 29,1 C 29,5 C 30,5 C 30,5 C 51 % 42 % 42 % 1008,6 hPa 0,0 mm 5,9 km/h (2 Bft) SW 225 14,9 C 29,1 C 9,0 km/h (2 Bft)
16.08.2022 13:55 26,4 C 29,5 C 30,1 C 31,5 C 31,5 C 52 % 40 % 41 % 1008,6 hPa 0,0 mm 4,1 km/h (1 Bft) W 270 14,5 C 29,5 C 3,5 km/h (1 Bft)
16.08.2022 13:50 26,4 C 29,7 C 30,2 C 31,9 C 31,9 C 52 % 41 % 42 % 1008,6 hPa 0,0 mm 5,5 km/h (1 Bft) W-SW 247 15,0 C 29,7 C 3,1 km/h (1 Bft)
16.08.2022 13:45 26,4 C 29,8 C 30,1 C 31,9 C 31,9 C 52 % 41 % 41 % 1008,6 hPa 0,0 mm 7,1 km/h (2 Bft) W 270 15,1 C 29,7 C 5,8 km/h (2 Bft)
16.08.2022 13:40 26,2 C 29,8 C 30,2 C 31,9 C 31,9 C 52 % 42 % 42 % 1008,6 hPa 0,0 mm 7,5 km/h (2 Bft) S 180 15,5 C 29,7 C 6,0 km/h (2 Bft)
16.08.2022 13:35 26,3 C 29,7 C 30,0 C 32,4 C 32,4 C 52 % 39 % 39 % 1008,6 hPa 0,0 mm 8,4 km/h (2 Bft) S 180 14,2 C 29,5 C 5,6 km/h (1 Bft)
16.08.2022 13:30 26,2 C 30,1 C 30,7 C 33,5 C 33,5 C 52 % 41 % 41 % 1008,4 hPa 0,0 mm 8,4 km/h (2 Bft) SW 225 15,4 C 29,9 C 6,3 km/h (2 Bft)
16.08.2022 13:25 26,2 C 30,6 C 31,5 C 34,3 C 34,3 C 52 % 40 % 40 % 1008,4 hPa 0,0 mm 7,5 km/h (2 Bft) W 270 15,4 C 30,5 C 4,3 km/h (1 Bft)
16.08.2022 13:20 26,2 C 30,8 C 31,5 C 34,4 C 34,4 C 53 % 40 % 40 % 1008,4 hPa 0,0 mm 7,7 km/h (2 Bft) SW 225 15,6 C 30,7 C 8,4 km/h (2 Bft)
16.08.2022 13:15 26,1 C 30,4 C 31,0 C 33,5 C 33,5 C 53 % 41 % 41 % 1008,4 hPa 0,0 mm 8,4 km/h (2 Bft) NW 315 15,6 C 30,2 C 7,9 km/h (2 Bft)
16.08.2022 13:10 26,1 C 30,0 C 30,6 C 32,7 C 32,7 C 53 % 42 % 42 % 1008,2 hPa 0,0 mm 6,8 km/h (2 Bft) SW 225 15,7 C 30,0 C 16,7 km/h (3 Bft)
16.08.2022 13:05 26,1 C 29,7 C 30,3 C 32,0 C 32,0 C 53 % 42 % 42 % 1008,2 hPa 0,0 mm 5,7 km/h (1 Bft) NO 45 15,4 C 29,7 C 6,4 km/h (2 Bft)
16.08.2022 13:00 26,0 C 29,5 C 29,9 C 32,0 C 32,0 C 53 % 42 % 42 % 1008,2 hPa 0,0 mm 5,7 km/h (1 Bft) S 180 15,2 C 29,5 C 2,7 km/h (1 Bft)
16.08.2022 12:55 26,0 C 29,3 C 29,7 C 31,6 C 31,6 C 53 % 42 % 43 % 1008,2 hPa 0,0 mm 5,0 km/h (1 Bft) W-SW 247 15,0 C 29,3 C 10,9 km/h (2 Bft)
16.08.2022 12:50 25,9 C 29,5 C 29,8 C 32,0 C 32,0 C 53 % 43 % 44 % 1007,6 hPa 0,0 mm 5,0 km/h (1 Bft) SW 225 15,6 C 29,5 C 7,4 km/h (2 Bft)
16.08.2022 12:45 26,0 C 29,0 C 29,5 C 31,9 C 31,9 C 53 % 44 % 44 % 1007,6 hPa 0,0 mm 5,7 km/h (1 Bft) N-NO 22 15,5 C 29,0 C 2,9 km/h (1 Bft)
16.08.2022 12:40 26,0 C 29,4 C 29,9 C 32,3 C 32,3 C 53 % 44 % 44 % 1007,6 hPa 0,0 mm 6,1 km/h (2 Bft) SW 225 15,8 C 29,4 C 14,2 km/h (3 Bft)
16.08.2022 12:35 25,9 C 29,2 C 29,6 C 31,7 C 31,7 C 53 % 44 % 45 % 1007,6 hPa 0,0 mm 5,2 km/h (1 Bft) S-SO 157 15,7 C 29,2 C 10,3 km/h (2 Bft)
16.08.2022 12:30 25,9 C 28,8 C 29,3 C 31,3 C 31,3 C 53 % 45 % 46 % 1008,2 hPa 0,0 mm 5,0 km/h (1 Bft) W 270 15,7 C 28,8 C 3,2 km/h (1 Bft)
16.08.2022 12:25 25,8 C 29,0 C 29,7 C 32,3 C 32,3 C 53 % 45 % 45 % 1008,2 hPa 0,0 mm 6,4 km/h (2 Bft) NW 315 15,8 C 29,0 C 6,1 km/h (2 Bft)
16.08.2022 12:20 25,8 C 28,9 C 29,6 C 32,3 C 32,3 C 54 % 44 % 45 % 1008,2 hPa 0,0 mm 5,5 km/h (1 Bft) W 270 15,4 C 28,9 C 4,7 km/h (1 Bft)
16.08.2022 12:15 25,8 C 28,6 C 29,1 C 32,0 C 32,0 C 54 % 48 % 49 % 1008,2 hPa 0,0 mm 3,4 km/h (1 Bft) W-NW 292 16,5 C 28,6 C 1,9 km/h (1 Bft)
16.08.2022 12:10 25,7 C 28,6 C 29,1 C 32,0 C 32,0 C 55 % 48 % 49 % 1007,8 hPa 0,0 mm 3,4 km/h (1 Bft) W-NW 292 16,5 C 28,6 C 1,9 km/h (1 Bft)
16.08.2022 12:05 25,7 C 28,6 C 29,1 C 32,0 C 32,0 C 55 % 48 % 49 % 1007,8 hPa 0,0 mm 3,9 km/h (1 Bft) NW 315 16,5 C 28,6 C 4,7 km/h (1 Bft)
16.08.2022 12:00 25,7 C 28,3 C 28,9 C 31,4 C 31,4 C 55 % 49 % 50 % 1007,8 hPa 0,0 mm 5,5 km/h (1 Bft) S-SO 157 16,5 C 28,3 C 13,8 km/h (3 Bft)
16.08.2022 11:55 25,6 C 28,4 C 28,9 C 31,3 C 31,3 C 56 % 49 % 50 % 1007,8 hPa 0,0 mm 6,1 km/h (2 Bft) S-SW 202 16,6 C 28,4 C 7,9 km/h (2 Bft)
16.08.2022 11:50 25,6 C 28,4 C 28,9 C 31,5 C 31,5 C 56 % 49 % 50 % 1008,2 hPa 0,0 mm 6,1 km/h (2 Bft) W 270 16,6 C 28,4 C 7,6 km/h (2 Bft)
16.08.2022 11:45 25,5 C 28,3 C 28,7 C 31,4 C 31,4 C 56 % 50 % 52 % 1008,2 hPa 0,0 mm 6,1 km/h (2 Bft) SW 225 16,9 C 28,3 C 7,4 km/h (2 Bft)
16.08.2022 11:40 25,5 C 28,3 C 28,7 C 31,5 C 31,5 C 56 % 50 % 51 % 1008,2 hPa 0,0 mm 6,4 km/h (2 Bft) NO 45 16,9 C 28,3 C 3,7 km/h (1 Bft)
16.08.2022 11:35 25,5 C 28,2 C 28,5 C 31,7 C 31,7 C 56 % 50 % 51 % 1008,2 hPa 0,0 mm 4,8 km/h (1 Bft) S-SO 157 16,8 C 28,2 C 7,7 km/h (2 Bft)
16.08.2022 11:30 25,4 C 28,2 C 28,5 C 31,8 C 31,8 C 56 % 52 % 53 % 1008,3 hPa 0,0 mm 3,4 km/h (1 Bft) N-NW 337 17,4 C 28,2 C 5,1 km/h (1 Bft)
16.08.2022 11:25 25,2 C 28,3 C 28,5 C 31,8 C 31,8 C 56 % 50 % 52 % 1008,3 hPa 0,0 mm 4,8 km/h (1 Bft) W 270 16,9 C 28,3 C 2,4 km/h (1 Bft)
16.08.2022 11:20 25,3 C 28,1 C 28,3 C 31,5 C 31,5 C 57 % 52 % 53 % 1008,3 hPa 0,0 mm 4,1 km/h (1 Bft) SW 225 17,3 C 28,1 C 3,7 km/h (1 Bft)
16.08.2022 11:15 25,2 C 27,9 C 28,1 C 31,4 C 31,4 C 57 % 52 % 55 % 1008,3 hPa 0,0 mm 4,3 km/h (1 Bft) S 180 17,1 C 27,9 C 8,4 km/h (2 Bft)
16.08.2022 11:10 25,2 C 27,8 C 27,8 C 31,3 C 31,3 C 57 % 53 % 55 % 1007,9 hPa 0,0 mm 4,8 km/h (1 Bft) SO 135 17,3 C 27,8 C 3,4 km/h (1 Bft)
16.08.2022 11:05 25,0 C 27,1 C 27,5 C 30,9 C 30,9 C 57 % 54 % 55 % 1007,9 hPa 0,0 mm 4,3 km/h (1 Bft) S 180 17,0 C 27,1 C 4,7 km/h (1 Bft)
16.08.2022 11:00 25,0 C 27,0 C 27,3 C 30,6 C 30,6 C 58 % 54 % 56 % 1007,9 hPa 0,0 mm 3,6 km/h (1 Bft) S-SW 202 16,9 C 27,0 C 2,1 km/h (1 Bft)
16.08.2022 10:55 24,8 C 26,8 C 26,9 C 30,4 C 30,4 C 58 % 56 % 57 % 1007,9 hPa 0,0 mm 2,7 km/h (1 Bft) W-SW 247 17,3 C 26,8 C 3,2 km/h (1 Bft)
16.08.2022 10:50 24,8 C 26,5 C 26,6 C 30,0 C 30,0 C 58 % 56 % 59 % 1007,9 hPa 0,0 mm 2,5 km/h (1 Bft) N-NW 337 17,0 C 26,5 C 2,1 km/h (1 Bft)
16.08.2022 10:45 24,7 C 26,2 C 26,4 C 29,8 C 29,8 C 58 % 56 % 58 % 1007,9 hPa 0,0 mm 3,2 km/h (1 Bft) S 180 16,7 C 26,2 C 2,6 km/h (1 Bft)
16.08.2022 10:40 24,7 C 26,1 C 26,1 C 29,6 C 29,6 C 58 % 59 % 60 % 1007,9 hPa 0,0 mm 3,4 km/h (1 Bft) S 180 17,4 C 26,1 C 3,2 km/h (1 Bft)
16.08.2022 10:35 24,6 C 25,5 C 25,7 C 28,9 C 28,9 C 59 % 58 % 60 % 1007,9 hPa 0,0 mm 3,4 km/h (1 Bft) S-SW 202 16,6 C 25,5 C 1,6 km/h (1 Bft)
16.08.2022 10:30 24,6 C 25,5 C 25,5 C 28,7 C 28,7 C 59 % 59 % 61 % 1007,9 hPa 0,0 mm 3,4 km/h (1 Bft) SW 225 16,9 C 25,5 C 3,9 km/h (1 Bft)
16.08.2022 10:25 24,5 C 25,2 C 25,1 C 27,8 C 27,8 C 59 % 60 % 62 % 1007,9 hPa 0,0 mm 5,2 km/h (1 Bft) O 90 16,9 C 25,2 C 2,4 km/h (1 Bft)
16.08.2022 10:20 24,5 C 24,9 C 24,9 C 27,4 C 27,4 C 60 % 61 % 62 % 1007,9 hPa 0,0 mm 5,9 km/h (2 Bft) W 270 16,8 C 24,9 C 2,4 km/h (1 Bft)
16.08.2022 10:15 24,4 C 24,7 C 24,9 C 27,1 C 27,1 C 59 % 61 % 62 % 1007,9 hPa 0,0 mm 5,0 km/h (1 Bft) SW 225 16,7 C 24,7 C 7,9 km/h (2 Bft)
16.08.2022 10:10 24,4 C 24,6 C 24,8 C 27,0 C 27,0 C 59 % 62 % 63 % 1007,6 hPa 0,0 mm 3,4 km/h (1 Bft) SW 225 16,8 C 24,6 C 10,0 km/h (2 Bft)
16.08.2022 10:05 24,3 C 24,4 C 24,8 C 27,0 C 27,0 C 59 % 62 % 64 % 1007,6 hPa 0,0 mm 1,6 km/h (1 Bft) W-SW 247 16,6 C 24,4 C 3,5 km/h (1 Bft)
16.08.2022 10:00 24,3 C 24,2 C 24,6 C 27,4 C 27,4 C 59 % 62 % 63 % 1007,6 hPa 0,0 mm 2,0 km/h (1 Bft) W 270 16,4 C 24,2 C 0,0 km/h (0 Bft)
16.08.2022 09:55 24,2 C 24,6 C 24,7 C 28,4 C 28,4 C 59 % 61 % 64 % 1007,6 hPa 0,0 mm 2,5 km/h (1 Bft) S-SO 157 16,6 C 24,6 C 1,6 km/h (1 Bft)
16.08.2022 09:50 24,2 C 24,5 C 24,7 C 28,1 C 28,1 C 59 % 63 % 65 % 1007,4 hPa 0,0 mm 1,8 km/h (1 Bft) W 270 17,0 C 24,5 C 0,0 km/h (0 Bft)
16.08.2022 09:45 24,0 C 24,1 C 24,1 C 27,2 C 27,2 C 59 % 63 % 67 % 1007,4 hPa 0,0 mm 2,5 km/h (1 Bft) SW 225 16,6 C 24,1 C 2,7 km/h (1 Bft)
16.08.2022 09:40 24,0 C 23,7 C 23,8 C 26,6 C 26,6 C 58 % 63 % 67 % 1007,4 hPa 0,0 mm 3,9 km/h (1 Bft) SO 135 16,2 C 23,7 C 0,0 km/h (0 Bft)
16.08.2022 09:35 23,8 C 23,4 C 23,3 C 25,9 C 25,9 C 59 % 64 % 67 % 1007,4 hPa 0,0 mm 4,6 km/h (1 Bft) SW 225 16,2 C 23,4 C 2,9 km/h (1 Bft)
16.08.2022 09:30 23,8 C 23,1 C 23,0 C 25,5 C 25,5 C 59 % 65 % 69 % 1007,2 hPa 0,0 mm 5,0 km/h (1 Bft) S 180 16,2 C 23,1 C 4,8 km/h (1 Bft)
16.08.2022 09:25 23,7 C 22,7 C 22,7 C 25,2 C 25,2 C 59 % 64 % 68 % 1007,2 hPa 0,0 mm 5,0 km/h (1 Bft) S 180 15,5 C 22,7 C 0,0 km/h (0 Bft)
16.08.2022 09:20 23,7 C 22,7 C 22,6 C 25,1 C 25,1 C 60 % 65 % 69 % 1007,2 hPa 0,0 mm 4,8 km/h (1 Bft) W-SW 247 15,8 C 22,7 C 5,0 km/h (1 Bft)
16.08.2022 09:15 23,7 C 22,4 C 22,5 C 24,7 C 24,7 C 59 % 65 % 70 % 1007,2 hPa 0,0 mm 4,6 km/h (1 Bft) SW 225 15,5 C 22,4 C 3,4 km/h (1 Bft)
16.08.2022 09:10 23,7 C 22,3 C 22,3 C 24,8 C 24,8 C 59 % 66 % 70 % 1006,8 hPa 0,0 mm 4,6 km/h (1 Bft) SW 225 15,6 C 22,3 C 7,9 km/h (2 Bft)
16.08.2022 09:05 23,7 C 22,2 C 22,2 C 24,7 C 24,7 C 59 % 66 % 71 % 1006,8 hPa 0,0 mm 3,2 km/h (1 Bft) SW 225 15,5 C 22,2 C 4,5 km/h (1 Bft)
16.08.2022 09:00 23,6 C 21,9 C 22,0 C 24,5 C 24,5 C 59 % 67 % 71 % 1006,8 hPa 0,0 mm 3,6 km/h (1 Bft) W 270 15,5 C 21,9 C 5,5 km/h (1 Bft)
16.08.2022 08:55 23,6 C 21,7 C 21,8 C 24,1 C 24,1 C 59 % 67 % 72 % 1006,8 hPa 0,0 mm 3,0 km/h (1 Bft) SW 225 15,3 C 21,7 C 0,0 km/h (0 Bft)
16.08.2022 08:50 23,6 C 21,7 C 21,7 C 23,9 C 23,9 C 59 % 67 % 73 % 1006,8 hPa 0,0 mm 3,2 km/h (1 Bft) W-SW 247 15,3 C 21,7 C 6,4 km/h (2 Bft)
16.08.2022 08:45 23,6 C 21,8 C 21,4 C 23,6 C 23,6 C 59 % 67 % 73 % 1006,8 hPa 0,0 mm 3,2 km/h (1 Bft) SW 225 15,4 C 21,8 C 2,9 km/h (1 Bft)
16.08.2022 08:40 23,5 C 21,9 C 21,2 C 23,4 C 23,4 C 58 % 68 % 75 % 1006,8 hPa 0,0 mm 2,7 km/h (1 Bft) SW 225 15,7 C 21,9 C 3,4 km/h (1 Bft)
16.08.2022 08:35 23,6 C 21,5 C 20,9 C 22,9 C 22,9 C 59 % 68 % 75 % 1006,8 hPa 0,0 mm 3,6 km/h (1 Bft) SO 135 15,3 C 21,5 C 3,9 km/h (1 Bft)
16.08.2022 08:30 23,6 C 21,4 C 20,7 C 22,6 C 22,6 C 59 % 68 % 76 % 1006,9 hPa 0,0 mm 3,9 km/h (1 Bft) SW 225 15,2 C 21,4 C 2,1 km/h (1 Bft)
16.08.2022 08:25 23,5 C 21,2 C 20,4 C 22,2 C 22,2 C 58 % 68 % 77 % 1006,9 hPa 0,0 mm 3,6 km/h (1 Bft) SW 225 15,1 C 21,2 C 5,0 km/h (1 Bft)
16.08.2022 08:20 23,6 C 21,1 C 20,3 C 22,0 C 22,0 C 58 % 68 % 77 % 1006,9 hPa 0,0 mm 3,2 km/h (1 Bft) SW 225 15,0 C 21,1 C 9,8 km/h (2 Bft)
16.08.2022 08:15 23,6 C 20,8 C 19,7 C 21,6 C 21,6 C 58 % 68 % 80 % 1006,9 hPa 0,0 mm 2,0 km/h (1 Bft) S 180 14,7 C 20,8 C 3,4 km/h (1 Bft)
16.08.2022 08:10 23,6 C 20,5 C 19,5 C 21,3 C 21,3 C 58 % 68 % 80 % 1006,4 hPa 0,0 mm 1,8 km/h (1 Bft) W 270 14,4 C 20,5 C 8,0 km/h (2 Bft)
16.08.2022 08:05 23,6 C 20,3 C 19,1 C 21,2 C 21,2 C 57 % 68 % 81 % 1006,4 hPa 0,0 mm 1,4 km/h (1 Bft) S 180 14,2 C 20,3 C 0,0 km/h (0 Bft)
16.08.2022 08:00 23,6 C 20,0 C 19,0 C 21,1 C 21,1 C 57 % 69 % 81 % 1006,4 hPa 0,0 mm 1,4 km/h (1 Bft) W 270 14,1 C 20,0 C 2,4 km/h (1 Bft)
16.08.2022 07:55 23,6 C 19,7 C 18,8 C 20,7 C 20,7 C 57 % 68 % 82 % 1006,4 hPa 0,0 mm 0,9 km/h (0 Bft) S-SO 157 13,6 C 19,7 C 1,6 km/h (1 Bft)
16.08.2022 07:50 23,7 C 19,5 C 18,7 C 20,3 C 20,3 C 57 % 68 % 82 % 1006,4 hPa 0,0 mm 0,9 km/h (0 Bft) S 180 13,4 C 19,5 C 1,8 km/h (1 Bft)
16.08.2022 07:45 23,8 C 19,2 C 18,4 C 19,6 C 19,6 C 56 % 68 % 83 % 1006,4 hPa 0,0 mm 0,9 km/h (0 Bft) S-SO 157 13,1 C 19,2 C 0,0 km/h (0 Bft)
16.08.2022 07:40 23,8 C 18,9 C 18,2 C 19,0 C 19,0 C 56 % 68 % 83 % 1006,4 hPa 0,0 mm 1,1 km/h (1 Bft) SW 225 12,9 C 18,9 C 0,0 km/h (0 Bft)
16.08.2022 07:35 24,0 C 18,6 C 18,0 C 18,4 C 18,1 C 55 % 68 % 83 % 1006,4 hPa 0,0 mm 1,8 km/h (1 Bft) SW 225 12,6 C 18,6 C 0,0 km/h (0 Bft)
16.08.2022 07:30 24,1 C 18,4 C 17,8 C 18,1 C 17,6 C 55 % 67 % 83 % 1006,6 hPa 0,0 mm 1,6 km/h (1 Bft) S 180 12,2 C 18,4 C 2,1 km/h (1 Bft)
16.08.2022 07:25 24,3 C 18,2 C 17,7 C 17,9 C 17,4 C 55 % 68 % 83 % 1006,6 hPa 0,0 mm 0,7 km/h (0 Bft) W-SW 247 12,2 C 18,2 C 4,2 km/h (1 Bft)
16.08.2022 07:20 24,4 C 18,1 C 17,6 C 17,8 C 17,2 C 54 % 68 % 83 % 1006,6 hPa 0,0 mm 0,9 km/h (0 Bft) S 180 12,1 C 18,1 C 2,7 km/h (1 Bft)
16.08.2022 07:15 24,7 C 18,0 C 17,5 C 17,7 C 17,2 C 54 % 68 % 83 % 1006,6 hPa 0,0 mm 1,6 km/h (1 Bft) S-SO 157 12,0 C 18,0 C 0,0 km/h (0 Bft)
16.08.2022 07:10 24,8 C 17,8 C 17,5 C 17,6 C 17,1 C 53 % 68 % 84 % 1006,8 hPa 0,0 mm 2,3 km/h (1 Bft) S 180 11,8 C 17,8 C 2,1 km/h (1 Bft)
16.08.2022 07:05 25,2 C 17,7 C 17,4 C 17,4 C 16,9 C 52 % 68 % 84 % 1006,8 hPa 0,0 mm 2,5 km/h (1 Bft) S-SO 157 11,7 C 17,7 C 2,3 km/h (1 Bft)
16.08.2022 07:00 25,2 C 17,7 C 17,3 C 17,4 C 16,9 C 52 % 68 % 84 % 1006,8 hPa 0,0 mm 3,0 km/h (1 Bft) S-SW 202 11,7 C 17,7 C 3,1 km/h (1 Bft)
_ Min-Zeit 08:25 05:05 05:05 05:10 05:10 17:05 16:00 16:05 07:35 - 20:15 - - 05:35 05:05 07:15
Minimum _ 23,5 C 16,1 C 15,9 C 15,9 C 15,6 C 47 % 33 % 33 % 1006,4 hPa - 0,0 km/h (0 Bft) - - 9,1 C 16,1 C 0,0 km/h (0 Bft)
_ Max-Zeit 18:50 15:30 15:30 15:30 15:30 09:20 08:00 06:35 23:15 07:00 15:55 - - 10:40 15:30 13:10
Maximum _ 27,7 C 31,9 C 33,1 C 36,3 C 36,3 C 60 % 69 % 90 % 1010,4 hPa 0,0 mm 10,2 km/h
SW (2 Bft)
- - 17,4 C 31,9 C 16,7 km/h
SW (3 Bft)
Durchschnitt _ 26,0 C 23,2 C 23,2 C 24,1 C 23,9 C 52 % 56 % 65 % 1008,5 hPa #0,0 mm 2,5 km/h (1 Bft) N-NW - 13,5 C 23,2 C 2,5 km/h (1 Bft)